EHI
0 0 0 0 0 0 0 0 0 0 0 0 0 0 0 0 0 0 0 0 0 0 0 0 0 0 0 0 0 0 0 0 0 0 0 0 0 0
0 0 0 0 0 0 0 0 0 0 0 0 0 0 0 0 0 0 0 0 0 0 0 0 0 0 0 0 0 0 0 0 0 0 0 0 0 0
0 0 0 0 0 0 0 0 0 0 0 0 0 0 0 0 0 0 0 0 0 0 0 0 0 0 0 0 0 0 0 0 0 0 0 0 0 0
0 0 0 0 0 0 0 0 0 0 0 0 0 0 0 0 0 0 0 0 0 0 0 0 0 0 0 0 0 0 0 0 0 0 0 0 0 0
0 0 0 0 0 0 0 0 0 0 0 0 0 0 0 0 0 0 0 0 0 0 0 0 0 0 0 0 0 0 0 0 0 0 0 0 0 0
0 0 0 0 0 0 0 0 0 0 0 0 0 0 0 0 0 0 0 0 0 0 0 0 0 0 0 0 0 0 0 0 0 0 0 0 0 0
0 0 0 0 0 0 0 0 0 0 0 0 0 0 0 0 0 0 0 0 0 0 0 0 0 0 0 0 0 0 0 0 0 0 0 0 0 0
0 0 0 0 0 0 0 0 0 0 0 0 0 0 0 0 0 0 0 0 0 0 0 0 0 0 0 0 0 0 0 0 0 0 0 0 0 0
0 0 0 0 0 0 0 0 0 0 0 0 0 0 0 0 0 0 0 0 0 0 0 0 0 0 0 0 0 0 0 0 0 0 0 0 0 0
0 0 0 0 0 0 0 0 0 0 0 0 0 0 0 0 0 0 0 0 0 0 0 0 0 0 0 0 0 0 0 0 0 0 0 0 0 0
0 0 0 0 0 0 0 0 0 0 0 0 0 0 0 0 0 0 0 0 0 0 0 0 0 0 0 0 0 0 0 0 0 0 0 0 0 0
0 0 0 0 0 0 0 0 0 0 0 0 0 0 0 0 0 0 0 0 0 0 0 0 0 0 0 0 0 0 0 0 0 0 0 0 0 0
0 0 0 0 0 0 0 0 0 0 0 0 0 0 0 0 0 0 0 0 0 0 0 0 0 0 0 0 0 0 0 0 0 0 0 0 0 0
0 0 0 0 0 0 0 0 0 0 0 0 0 0 0 0 0 0 0 0 0 0 0 0 0 0 0 0 0 0 0 0 0 0 0 0 0 0
0 0 0 0 0 0 0 0 0 0 0 0 0 0 0 0 0 0 0 0 0 0 0 0 0 0 0 0 0 0 0 0 0 0 0 0 0 0
0 0 0 0 0 0 0 0 0 0 0 0 0 0 0 0 0 0 0 0 0 0 0 0 0 0 0 0 0 0 0 0 0 0 0 0 0 0
0 0 0 0 0 0 0 0 0 0 0 0 0 0 0 0 0 0 0 0 0 0 0 0 0 0 0 0 0 0 0 0 0 0 0 0 0 0
0 0 0 0 0 0 0 0 0 0 0 0 0 0 0 0 0 0 0 0 0 0 0 0 0 0 0 0 0 0 0 0 0 0 0 0 0 0
0 0 0 0 0 0 0 0 0 0 0 0 0 0 0 0 0 0 0 0 0 0 0 0 0 0 0 0 0 0 0 0 0 0 0 0 0 0
0 0 0 0 0 0 0 0 0 0 0 0 0 0 0 0 0 0 0 0 0 0 0 0 0 0 0 0 0 0 0 0 0 0 0 0 0 0
0 0 0 0 0 0 0 0 0 0 0 0 0 0 0 0 0 0 0 0 0 0 0 0 0 0 0 0 0 0 0 0 0 0 0 0 0 0
0 0 0 0 0 0 0 0 0 0 0 0 0 0 0 0 0 0 0 0 0 0 0 0 0 0 0 0 0 0 0 0 0 0 0 0 0 0
0 0 0 0 0 0 0 0 0 0 0 0 0 0 0 0 0 0 0 0 0 0 0 0 0 0 0 0 0 0 0 0 0 0 0 0 0 0
Wind_Speed
2 2 1 1 1 2 3 4 5 3 3 3 2 2 2 2 2 1 1 4 6 7 7 7 8 8 8 9 10 10 10 10 10 11 11 11 12 12
2 3 2 2 2 2 2 2 3 4 3 3 3 2 2 2 3 1 2 5 6 7 7 7 8 8 9 10 10 10 10 11 11 11 12 11 12 12
3 3 3 2 2 2 2 2 2 3 3 2 1 1 2 2 2 1 2 2 3 6 8 8 8 9 9 9 10 10 11 11 11 11 12 12 13 13
4 3 3 2 3 3 2 3 2 2 3 3 1 1 2 2 2 2 2 2 2 6 8 8 9 9 9 9 10 10 11 11 11 12 12 13 13 14
5 5 4 4 4 3 3 3 2 2 2 2 2 1 1 1 1 2 2 2 3 5 7 8 8 9 9 10 10 10 10 11 11 11 12 12 13 13
4 4 5 5 5 5 4 4 3 3 2 2 2 2 2 1 1 2 2 2 3 3 4 5 7 8 9 10 11 10 10 11 11 12 12 12 12 13
4 4 5 6 7 6 4 4 5 3 3 2 2 2 2 2 2 2 2 2 3 2 2 3 3 3 5 8 9 10 11 11 11 12 12 13 13 13
5 4 4 5 7 8 8 8 8 6 5 4 3 4 4 4 2 2 2 1 3 2 1 3 2 4 4 3 8 11 11 11 12 12 13 13 13 13
5 4 3 4 5 4 6 7 8 10 9 6 6 6 5 5 4 3 3 3 4 2 1 4 2 4 4 5 10 11 11 11 12 12 13 13 13 13
5 5 5 4 5 5 5 4 4 5 6 5 6 6 5 5 5 5 4 3 3 2 2 3 3 3 4 4 9 10 10 10 12 12 12 13 13 13
4 5 5 5 7 8 5 5 4 4 5 7 7 6 7 6 4 2 1 1 3 3 2 2 2 3 3 3 5 8 10 11 12 13 12 12 12 12
2 3 6 6 7 8 5 5 5 5 3 3 4 4 4 5 6 4 4 3 2 3 2 2 2 2 4 3 2 3 5 9 12 12 13 13 12 6
2 2 3 7 8 8 7 5 7 4 3 3 3 2 2 2 3 3 3 3 3 4 3 2 2 2 3 4 3 3 3 4 4 6 10 12 12 8
3 3 3 6 7 8 6 6 7 4 2 2 2 3 3 3 3 3 3 3 4 5 4 3 3 3 3 4 5 3 3 3 3 4 4 9 10 11
3 5 5 6 6 5 6 6 4 2 2 3 3 3 3 3 2 1 1 2 2 3 3 3 4 3 3 5 5 4 4 4 3 3 4 4 4 4
3 4 5 4 3 3 3 3 2 3 3 3 3 2 1 2 2 2 1 1 2 3 3 4 4 4 4 5 5 6 4 4 3 4 4 4 4 4
2 1 1 1 1 2 2 2 2 2 3 2 2 2 2 2 2 2 1 1 2 3 3 2 3 4 5 5 5 6 5 5 4 4 4 5 5 4
2 2 2 2 3 3 3 2 2 3 3 3 3 3 2 3 2 2 2 2 3 3 3 3 2 2 3 4 7 6 5 5 4 4 3 4 6 4
2 2 3 3 3 3 3 3 3 3 3 3 3 3 3 3 3 3 2 2 3 3 3 2 2 2 3 5 4 5 4 4 3 4 4 4 5 5
2 2 3 3 3 3 3 3 3 3 3 3 3 4 3 3 3 3 3 3 3 3 3 3 3 4 4 5 4 4 5 5 4 4 4 3 4 6
2 3 3 3 3 3 3 3 4 3 4 3 4 4 4 3 3 4 4 5 4 3 4 4 4 6 3 2 4 4 3 5 6 4 3 3 3 3
3 3 3 3 3 3 3 3 3 4 4 4 4 4 4 4 4 4 4 4 4 4 4 3 3 2 2 3 5 5 5 4 5 7 6 5 3 3
3 3 3 3 3 3 3 4 4 4 4 4 4 4 4 3 3 3 4 3 3 3 3 3 2 2 2 3 4 4 5 4 3 3 3 5 7 8
Wind_Direction
170 164 167 166 153 155 151 154 154 175 224 232 225 222 204 194 218 208 237 272 284 291 295 299 303 298 295 294 295 295 297 297 297 297 295 292 294 297
177 169 174 174 150 149 155 154 151 160 200 222 222 228 211 218 230 219 242 270 278 287 290 293 295 298 294 291 291 292 293 293 292 292 293 293 293 294
184 178 191 176 166 164 154 149 148 147 188 239 245 218 196 216 251 256 256 261 274 283 288 290 293 295 295 294 294 293 291 291 290 291 292 293 293 293
196 186 197 181 183 178 169 171 172 166 172 212 241 232 230 221 233 250 268 269 269 280 285 290 296 295 294 297 300 298 295 293 292 291 290 290 291 291
195 194 198 186 196 192 186 186 183 176 166 184 224 232 246 238 253 273 275 279 280 279 281 289 293 297 296 297 297 297 297 295 294 293 291 291 291 291
202 202 201 199 201 193 192 193 181 178 172 181 214 224 236 245 218 252 281 276 284 286 283 290 293 298 298 297 296 294 293 294 294 294 292 291 291 291
206 210 212 211 207 199 196 191 183 185 183 193 216 220 227 217 226 225 255 289 284 262 288 292 294 293 294 294 292 291 292 292 293 294 293 292 291 290
205 213 215 215 217 219 218 208 194 191 197 198 211 220 232 223 217 217 234 285 289 267 269 287 276 276 278 272 282 289 293 294 295 295 294 292 292 291
203 206 219 223 216 211 225 224 221 222 212 202 211 221 222 213 202 219 224 227 244 254 255 277 270 270 271 279 289 290 292 295 297 297 295 292 292 291
207 206 210 218 214 205 203 210 220 228 228 219 217 224 222 211 203 211 217 231 261 259 204 260 276 270 282 280 286 290 295 298 300 300 298 297 295 294
215 210 209 214 224 217 203 210 227 241 244 232 230 236 239 234 213 169 184 225 271 264 211 228 268 287 284 275 283 293 301 303 304 304 302 301 299 299
220 222 226 225 228 222 206 205 223 234 224 229 234 240 234 228 218 199 192 210 244 261 220 212 256 304 301 279 276 295 301 301 305 305 305 304 301 297
221 229 237 239 236 231 220 214 229 227 207 205 208 215 218 216 215 210 199 199 217 243 221 202 239 242 259 288 288 272 270 284 298 299 303 305 305 300
227 230 234 239 238 235 228 229 240 234 187 189 205 216 218 223 223 218 219 223 227 237 228 210 228 234 258 279 284 286 283 277 280 286 292 304 306 304
229 232 239 240 239 236 232 231 230 205 188 205 220 226 219 212 203 214 240 244 258 255 240 228 228 240 244 261 277 284 295 287 270 276 285 289 287 294
240 238 245 243 235 235 236 231 211 201 201 214 218 214 191 187 199 204 225 246 274 281 257 238 232 230 249 257 264 275 271 275 286 282 284 282 278 271
224 210 211 219 218 218 211 209 201 201 212 206 201 202 206 210 221 206 208 227 252 272 283 271 251 246 243 249 264 265 269 268 267 278 285 288 283 271
222 213 218 220 224 221 216 215 212 214 211 206 206 207 214 218 225 220 226 237 256 265 271 275 288 304 296 263 232 251 261 266 271 272 263 277 286 282
226 222 223 223 224 217 214 216 219 217 206 204 208 210 214 218 220 226 232 247 258 262 266 264 250 254 279 286 273 226 240 266 276 276 264 259 274 285
223 228 231 227 223 219 217 219 221 212 208 211 213 212 211 213 221 227 230 239 254 262 268 257 239 233 241 260 274 271 250 255 259 271 277 276 273 283
236 234 233 229 227 224 221 217 214 215 215 214 217 217 213 213 224 228 234 248 255 254 258 258 250 254 256 262 275 281 276 259 253 255 266 281 290 297
252 247 241 233 228 225 221 217 214 213 212 217 219 217 216 217 223 228 233 241 247 252 262 268 269 270 247 251 269 282 290 298 286 280 269 252 249 267
254 249 243 236 231 225 222 220 216 216 213 214 217 218 215 217 220 225 230 236 248 256 262 271 276 269 260 254 264 275 284 292 298 301 289 282 275 273